Regional Weather Roundup
Issued by NWS

Home | Current Version | Previous Version | Text Only | Print | Product List | Glossary Off
Versions: 1 2 3 4 5 6 7 8 9 10 11 12 13 14 15 16 17 18 19 20 21 22 23 24 25 26 27 28 29 30 31 32 33 34 35 36 37 38 39 40 41 42 43 44 45 46 47 48 49 50

162
ASUS43 KLOT 081608
RWRIL

ILLINOIS REGIONAL WEATHER ROUNDUP
NATIONAL WEATHER SERVICE CHICAGO/ROMEOVILLE IL
1000 AM CST THU DEC 08 2016

NOTE: "FAIR" INDICATES FEW OR NO CLOUDS BELOW 12,000 FEET WITH NO
SIGNIFICANT WEATHER AND/OR OBSTRUCTIONS TO VISIBILITY.

* THESE STATIONS ARE NOT UNDER NWS QUALITY CONTROL. THEY ALSO MAY NOT
  REPORT WEATHER SUCH AS PRECIPITATION OR FOG.

ILZ001-002-007-009-015-016-024-081700-
NORTHWEST ILLINOIS

CITY           SKY/WX    TMP DP  RH WIND       PRES   REMARKS
MOLINE         CLOUDY    18   8  65 W22G30    30.41R WCI   1
STERLING*      FLURRIES  16  10  77 W21G26    30.36R WCI  -1
SAVANNA*       CLOUDY    17  10  71 W17G23    30.37R WCI   2
$$

ILZ003-004-008-010-011-017-018-081700-
NORTH CENTRAL ILLINOIS

CITY           SKY/WX    TMP DP  RH WIND       PRES   REMARKS
ROCKFORD       FLURRIES  18   9  68 W21G26    30.32R WCI   1
FREEPORT*      CLOUDY    16  10  76 W18G28    30.33R WCI   0
ROCHELLE*      CLOUDY    16  10  76 W21       30.33R WCI  -1
DE KALB*       FLURRIES  16  10  77 W22G28    30.29R WCI  -1
$$

ILZ005-006-012>014-019>023-081700-
NORTHEAST ILLINOIS

CITY           SKY/WX    TMP DP  RH WIND       PRES   REMARKS
CHICAGO-OHARE  FLURRIES  18   9  68 W20G30    30.27R WCI   2
CHICAGO-MIDWAY FLURRIES  19   9  65 W17G25    30.29R WCI   4
AURORA         CLOUDY    18  10  71 W24G32    30.31R WCI   0
LANSING*       CLOUDY    18  12  78 W22G29    30.29R WCI   1
JOLIET*        LGT SNOW  19  12  74 W12G22    30.34R WCI   7
WAUKEGAN       MOSUNNY   18   9  68 W12G24    30.22R WCI   5
DUPAGE AIRPORT CLOUDY    17   8  67 W14G28    30.28R WCI   3
KANKAKEE*      LGT SNOW  19  12  76 W13G22    30.34R WCI   6
WHEELING       PTSUNNY   18   9  68 W18G28    30.28R WCI   2
MORRIS*        FLURRIES  18  11  76 W21       30.33R WCI   1
ROMEOVILLE*    FLURRIES  17  13  85 W22G28    30.32R WCI   0
NORTHERLY ISL    N/A     19  12  74 W13         N/A  WCI   6
$$

LMZ740>746-081700-
SOUTHERN LAKE MICHIGAN

STATION/POSITION SKY/WX   TEMP    WIND        PRES    VSBY  WAVE
                          AIR SEA DIR/SP/G                  HT/PER
                          (F)     (DEG/KT/KT) (MB)    (MI)  (FT/S)
HARRISON CRIB              19     270/ 27/ 30   N/A
BURNHAM HARBOR             19     280/  9/ 20   N/A
CALUMET HARBOR             18     260/ 10/ 20 1024.3R
BURNS HARBOR               21     270/ 21/ 25 1025.1R
MICHIGAN CITY              20     250/ 30/ 34   N/A
$$

ILZ025>027-034>036-040-047-049-050-058-095>099-081700-
WEST-CENTRAL ILLINOIS

CITY           SKY/WX    TMP DP  RH WIND       PRES   REMARKS
QUINCY         CLOUDY    19   9  65 W17       30.50R WCI   4
GALESBURG*     CLOUDY    17  10  74 W21G28    30.43R WCI  -1
MACOMB*        PTSUNNY   19  10  69 NW23G29   30.48R WCI   1
JACKSONVILLE*  CLOUDY    20  11  69 W20G26    30.48R WCI   4
PITTSFIELD*    PTSUNNY   20  10  66 W15G23    30.50R WCI   6
$$

ILZ028>032-037-038-041>044-048-051>054-059>061-081700-
CENTRAL ILLINOIS

CITY           SKY/WX    TMP DP  RH WIND       PRES   REMARKS
PONTIAC        MIX PCPN  20  13  72 W21G30    30.38R WCI   4
BLOOMINGTON    FLURRIES  19  12  74 W18G29    30.37R WCI   4
DECATUR        FLURRIES  20  11  68 W16       30.43R WCI   6
PEORIA         PTSUNNY   19   9  65 W17G25    30.42R WCI   4
LACON*         FLURRIES  19  10  68 W16G26    30.39R WCI   5
LINCOLN*       CLOUDY    21  12  67 W12G22    30.43R WCI   9
SPRINGFIELD    FLURRIES  21  12  68 W14G26    30.46R WCI   8
TAYLORVILLE    CLOUDY    20  12  71 W17G24    30.46R WCI   5
$$

ILZ033-039-045-046-055>057-062-063-081700-
EAST-CENTRAL ILLINOIS

CITY           SKY/WX    TMP DP  RH WIND       PRES   REMARKS
CHAMPAIGN      FLURRIES  21  12  68 W21       30.39R WCI   5
RANTOUL*       FLURRIES  23  15  72 W20G29    30.38R WCI   8
MATTOON        CLOUDY    21  12  68 W18       30.41R WCI   6
PARIS*         CLOUDY    21  15  77 W20G28    30.41R WCI   6
$$

ILZ079-100>102-081700-
SOUTHWEST ILLINOIS

CITY           SKY/WX    TMP DP  RH WIND       PRES   REMARKS
ALTON          MOSUNNY   23  12  63 W15       30.50R WCI  10
BELLEVILLE     SUNNY     26  12  55 NW16      30.49R WCI  14
CAHOKIA*       SUNNY     26  11  52 W16       30.52R WCI  14
SPARTA*        SUNNY     25  13  59 W14       30.52R WCI  13
$$

ILZ064>066-069>071-074>076-080>082-084>086-088>090-092>094-081700-
SOUTH-CENTRAL ILLINOIS

CITY           SKY/WX    TMP DP  RH WIND       PRES   REMARKS
CARBONDALE     SUNNY     27  14  58 NW10      30.51R WCI  17
CAIRO*         SUNNY     29  13  52 W12       30.53R WCI  19
EFFINGHAM*     PTSUNNY   23  16  73 W15       30.47R WCI  10
MARION         SUNNY     28  14  54 NW17      30.51R WCI  16
CENTRALIA*     SUNNY     26  16  65 W17       30.47R WCI  14
SALEM*         MOSUNNY   27  14  59 W16G22    30.47R WCI  14
METROPOLIS*    SUNNY     30  13  51 NW9       30.52R WCI  21
$$

ILZ067-068-072-073-078-083-087-091-081700-
SOUTHEAST ILLINOIS

CITY           SKY/WX    TMP DP  RH WIND       PRES   REMARKS
LAWRENCEVILLE  SUNNY     26  15  63 W16       30.44R WCI  14
FLORA*         MOSUNNY   28  15  60 W16G23    30.47R WCI  15
FAIRFIELD*     SUNNY     28  16  61 W6        30.47R WCI  21
HARRISBURG*    SUNNY     29  16  58 W14       30.50R WCI  18
ROBINSON*      MOSUNNY   25  15  66 W16       30.44R WCI  12
CARMI*         SUNNY     28  16  62 W15       30.47R WCI  16
$$

ABBREVIATIONS USED IN REMARKS
   TC - TEMPERATURE IN CELSIUS
  WCI - WIND CHILL INDEX
   HX - HEAT INDEX
  VSB - VISIBILITY
$$





USA.gov is the U.S. government's official web portal to all federal, state and local government web resources and services.